Regional Weather Roundup
Issued by NWS Tiyan, Guam

Home | Current Version | Previous Version | Text Only | Print | Product List | Glossary On
Versions: 1 2 3 4 5 6 7 8 9 10 11 12 13 14 15 16 17 18 19 20 21 22 23 24 25 26 27 28 29 30 31 32 33 34 35 36 37 38 39 40 41 42 43 44 45 46 47 48 49 50
000
ASGM40 PGUM 010810
RWRGUM
WEATHER ROUNDUP FOR THE MARIANAS
NATIONAL WEATHER SERVICE TIYAN GU
600 PM CHST TUE SEP 01 2015

GUZ001>004-010900-
MARIANA ISLANDS-

CITY           SKY/WX    TMP DP  RH WIND       PRES   REMARKS
GUAM AIRPORT   LGT RAIN  81  77  89 W3        29.84R
ANDERSEN AFB   MOCLDY    82  75  78 E7        29.85R
ROTA AIRPORT   LGT RAIN  82  77  83 E6        29.85S HX  91
TINIAN AP      PTCLDY    82  75  78 E7        29.83R
SAIPAN AP      CLEAR     82  79  89 E6        29.84R HX  93

$$




USA.gov is the U.S. government's official web portal to all federal, state and local government web resources and services.